Location: ?????????
(41.2286°N, 23.0068°E)
Time: 01:47:35
(UTC+00:00)

COSMO-SKYMED 1 - Pass Details

Date: 08 November 2025
Orbit: 579 x 581 km, 97.9° (Epoch: 07 December)

Event Time Altitude Azimuth Distance (km) Brightness Sun altitude
Rises 03:14:29 0° 143° (SE) 2,792 6.5 -21.5°
Reaches altitude 10° 03:16:47 10° 133° (SE) 1,897 5.7 -21.1°
Maximum altitude 03:20:27 32° 70° (ENE) 1,015 4.2 -20.4°
Drops below altitude 10° 03:24:07 10° 7° (N) 1,909 5.1 -19.7°
Sets 03:26:27 0° 358° (N) 2,812 5.9 -19.3°
